User: anonymous
Location: Columbia
(38.9520°N, 92.3340°W)
Time: 20:45:46
(UTC-05:00)
Language:

SL-08 RB Rocket - Orbit

View from above orbital plane
View from above orbital plane
View from above satellite
View from above satellite

Ground track
Ground track

The orbit data is extracted from the following two-line orbital elements,

1 26387U 00033D   14261.79474325  .00000508  00000-0  98231-4 0  6040
2 26387 098.0975 328.4507 0025607 276.6126 194.4572 14.67375386760819
Epoch (UTC): 18 September 2014 19:04:25
Eccentricity: 0.0025607
inclination: 98.0975°
perigee height: 651 km
apogee height: 687 km
right ascension of ascending node: 328.4507°
argument of perigee: 276.6126°
revolutions per day: 14.67375386
mean anomaly at epoch: 194.4572°
orbit number at epoch: 76081

The dashed part of the orbit path shows where the satellite is in the earth's shadow,  

DLR